Location: Newark
(44.3681°N, 100.3364°W)
Time: 03:15:03
(UTC+00:00)

deb Explorer IX - Pass Details

Date: 26 February 2020
Orbit: 547 x 1100 km, 38.8° (Epoch: 04 April)

Event Time Altitude Azimuth Distance (km) Brightness Sun altitude
Rises 14:14:18 0° 206° (SSW) 3,251 ? 7.8°
Reaches altitude 10° 14:18:07 10° 181° (S) 2,192 ? 8.4°
Maximum altitude 14:20:32 13° 152° (SSE) 1,886 ? 8.8°
Drops below altitude 10° 14:22:50 10° 123° (ESE) 2,042 ? 9.2°
Sets 14:26:08 0° 96° (E) 2,856 ? 9.7°
